Regional Weather Roundup
Issued by NWS State College, PA

Home | Current Version | Previous Version | Text Only | Print | Product List | Glossary Off
Versions: 1 2 3 4 5 6 7 8 9 10 11 12 13 14 15 16 17 18 19 20 21 22 23 24 25 26 27 28 29 30 31 32 33 34 35 36 37 38 39 40 41 42 43 44 45 46 47 48 49 50

803
ASUS41 KCTP 090103
RWRCTP

REGIONAL WEATHER ROUNDUP
NATIONAL WEATHER SERVICE STATE COLLEGE PA
800 PM EST MON FEB 08 2016

Note: "fair" indicates few or no clouds below 12,000 feet with no
significant weather and/or obstructions to visibility.

* = STATION THAT DOES NOT REPORT PRECIPITATION /E.G. RAIN...SNOW...ETC/
    THUNDER OR FOG.

PAZ002>004-007>009-013>016-020>023-029>032-090200-
WESTERN PENNSYLVANIA

CITY           SKY/WX    TMP DP  RH WIND       PRES   REMARKS
ERIE           CLOUDY    36  33  89 CALM      29.56F FOG
MEADVILLE      LGT SNOW  33  30  88 S5        29.55R FOG
FRANKLIN*      CLOUDY    32  28  86 S10       29.57S
NEW CASTLE     CLOUDY    34  31  88 W8        29.60R
BEAVER COUNTY  CLOUDY    34  32  93 W6        29.59R
BUTLER*        CLOUDY    34  30  86 W8        29.63R
PITTSBURGH INT CLOUDY    34  31  88 SW6       29.60R
PITTSBURGH     CLOUDY    36  30  79 W12       29.60R
INDIANA*       CLOUDY    34  34 100 SE7       29.62S
LATROBE        MOCLDY    37  36  93 SW9       29.61S
WASHINGTON CO* CLOUDY    34  28  80 W6        29.61S
$$

PAZ004>006-010>012-017>019-024>028-033>037-041-042-045-046-049>053-090200-
CENTRAL PENNSYLVANIA

CITY           SKY/WX    TMP DP  RH WIND       PRES   REMARKS
BRADFORD       CLOUDY    31  25  78 SE6       29.55F
DUBOIS         LGT SNOW  31  29  92 S6        29.56F FOG
CLEARFIELD     CLOUDY    34  25  69 VRB5      29.61S
JOHNSTOWN      CLOUDY    31  24  75 SE6       29.56F
ALTOONA        CLOUDY    35  22  58 CALM      29.61S
STATE COLLEGE  CLOUDY    36  28  75 S6        29.64S
WILLIAMSPORT   LGT RAIN  39  27  62 MISG      29.67R
SELINSGROVE    FLURRIES  36  30  79 S9        29.69R
FT INDIANTOWN  LGT SNOW  34  34 100 VRB2      29.71S FOG
CAPITAL CITY   CLOUDY    38  30  73 SE12      29.70S
HARRISBURG     LGT RAIN  36  31  82 SE8       29.70S
YORK           CLOUDY    37  30  75 VRB7      29.69R
$$

PAZ038>040-043-044-047-048-054-055-060>062-067>071-090200-
EASTERN PENNSYLVANIA

CITY           SKY/WX    TMP DP  RH WIND       PRES   REMARKS
SCRANTON       CLOUDY    35  17  47 VRB5G18   29.67S
MOUNT POCONO   CLOUDY    28  13  53 E7        29.66S
ALLENTOWN      CLOUDY    37  19  48 E7        29.73R
QUAKERTOWN*    CLOUDY    36  25  64 SE5       29.74R
READING        CLOUDY    38  26  62 SE7       29.70F
LANCASTER      LGT SNOW  34  31  88 SE10      29.71S FOG
COATESVILLE    CLOUDY    37  28  70 CALM      29.72S
POTTSTOWN      CLOUDY    36  24  62 VRB6      29.75R
BLUE BELL        N/A     34  25  69 CALM      29.74S
DOYLESTOWN     CLOUDY    33  22  63 CALM      29.74R
WILLOW GROVE   NOT AVBL
NORTH PHILA    CLOUDY    36  23  59 E10       29.78S
PHILADELPHIA   CLOUDY    37  24  59 E9        29.77R
$$




USA.gov is the U.S. government's official web portal to all federal, state and local government web resources and services.